Location: Red Deer
(52.2681°N, 113.8112°W)
Time: 09:30:07
(UTC-07:00)

X-37B - Visible Passes

Search period start: 03 December 2022 00:00
Search period end: 13 December 2022 00:00
Orbit: 277 x 277 km, 45.0° (Epoch: 01 November)

Date Brightness Start Highest point End Pass type
(mag) Time Alt. Az. Time Alt. Az. Time Alt. Az.
10 Dec 2.8 18:03:44 10° S 18:04:17 10° SSE 18:04:51 10° SSE visible
11 Dec 2.6 18:03:31 10° SSW 18:04:46 13° SSE 18:05:33 12° SSE visible
12 Dec 2.5 18:03:46 10° SSW 18:05:17 15° S 18:06:12 13° SSE visible
